Location: Sebastopol
(38.4021°N, 122.8239°W)
Time: 15:43:05
(UTC+00:00)

Cosmos 1980 Rocket - Pass Details

Date: 29 October 2020
Orbit: 831 x 848 km, 71.0° (Epoch: 01 December)

Event Time Altitude Azimuth Distance (km) Brightness Sun altitude
Exits shadow 12:51:26 - 339° (NNW) 2,861 4.7 -20.8°
Reaches altitude 10° 12:52:32 10° 340° (NNW) 2,444 4.4 -20.6°
Maximum altitude 12:58:08 77° 67° (ENE) 856 2.3 -19.5°
Drops below altitude 10° 13:03:43 10° 154° (SSE) 2,435 5.0 -18.4°
Sets 13:06:09 0° 155° (SSE) 3,368 5.7 -18.0°
